Lapse_Rate
6.5 6.9 7.2 7.3 7.5 7.7 7.6 7.5 7.0 7.1 7.1 6.7 6.4 5.9 5.8 6.2 6.2 6.1 6.2 5.9 5.1 5.1 5.7 5.9 5.9 5.9 5.7 5.8 5.9 5.8 6.0 6.0 5.8 6.1 6.3 6.3 6.2 6.2 6.1 6.2 6.2 6.2 6.2 5.9
6.6 6.9 7.2 7.4 7.8 8.2 7.9 7.7 7.3 7.3 7.3 7.1 7.4 6.8 6.0 5.9 6.0 6.3 6.0 6.1 5.6 5.4 5.6 5.8 5.7 6.1 5.7 5.7 5.9 5.7 5.6 5.6 5.9 6.0 5.8 6.1 5.9 6.2 6.3 6.4 6.3 6.3 5.9 6.1
6.7 7.0 7.1 7.4 7.8 8.2 8.3 8.0 7.6 7.9 7.9 7.6 7.8 7.7 6.6 6.2 6.2 6.3 6.3 6.0 6.0 6.0 6.1 5.8 6.1 6.2 5.6 5.8 6.2 6.0 5.7 5.6 5.6 5.8 6.0 6.1 6.2 6.3 6.4 6.4 6.6 6.5 6.2 6.1
6.7 7.3 7.6 7.8 7.9 8.0 8.4 8.8 8.0 7.8 8.0 7.3 7.0 7.0 7.3 6.8 6.8 7.1 6.6 6.0 6.1 6.0 6.1 6.1 6.7 6.4 6.1 6.1 6.2 6.5 6.2 6.1 5.6 5.5 5.9 6.2 6.2 6.5 6.4 6.2 6.1 6.2 6.0 5.7
7.5 7.6 7.3 7.3 8.1 8.1 8.5 8.6 8.4 8.7 8.2 7.6 7.0 6.6 7.9 7.5 7.4 7.5 7.4 6.9 6.6 6.2 5.9 6.1 6.4 6.1 6.0 6.0 5.9 5.9 5.9 5.9 5.7 5.6 5.3 5.7 6.1 6.3 6.5 6.5 6.3 6.2 6.1 5.9
7.3 7.5 7.6 8.3 8.4 8.6 8.5 8.7 8.7 8.2 8.1 7.2 7.9 7.0 7.9 8.1 7.8 7.4 7.5 7.0 6.5 5.9 5.9 6.0 5.9 5.3 5.7 5.7 5.9 5.8 5.7 5.5 5.4 5.9 5.5 5.4 5.9 6.0 6.0 6.4 6.3 6.4 6.2 6.1
7.4 7.7 7.9 8.2 8.3 8.4 8.6 8.9 8.7 7.8 7.2 7.0 8.4 6.8 8.2 8.5 8.1 7.8 7.8 7.1 6.7 6.2 5.4 6.0 6.1 5.8 5.8 5.7 5.8 6.0 5.8 5.7 5.5 5.7 5.9 5.7 5.6 5.8 5.7 6.0 6.1 6.2 6.5 6.5
7.8 8.5 8.8 8.8 8.9 9.0 9.1 9.0 8.6 7.6 6.9 7.8 8.0 7.4 8.7 8.5 8.1 7.9 7.8 7.4 6.7 6.7 6.3 6.6 6.7 6.7 6.2 5.9 5.8 5.7 5.8 5.6 5.5 5.5 5.6 5.8 5.5 5.8 5.9 5.8 5.9 5.8 6.0 6.2
8.3 8.7 9.1 9.0 8.9 8.9 9.2 8.9 9.1 9.0 7.9 7.8 8.8 8.6 9.0 9.1 8.7 8.5 8.3 7.8 7.3 7.1 6.7 6.8 6.7 6.7 6.4 6.4 6.2 5.7 5.8 5.6 5.6 5.7 5.5 5.8 5.6 5.8 6.0 5.7 5.8 5.6 5.5 6.0
9.0 8.9 9.4 9.2 9.1 9.0 8.7 9.4 9.2 8.6 7.1 7.3 8.1 7.8 8.7 8.9 8.8 8.5 8.5 8.1 7.5 7.0 6.9 6.9 6.9 6.8 6.5 6.5 6.1 5.8 5.8 5.7 5.7 5.6 5.6 5.7 5.7 5.7 5.8 5.7 5.9 5.7 5.5 5.7
8.7 8.7 9.2 9.3 9.0 9.3 9.2 9.1 9.2 9.0 8.7 6.9 6.4 7.9 9.0 8.9 8.4 8.1 7.9 8.4 7.9 7.4 7.3 7.1 7.0 6.9 6.8 6.4 6.2 6.1 5.9 5.8 5.8 5.6 5.7 5.8 5.8 5.8 5.8 5.8 6.1 5.7 5.7 5.7
8.7 8.5 8.5 9.2 9.5 9.2 9.3 9.5 9.5 9.2 8.8 8.6 8.2 8.5 8.9 8.8 8.6 8.1 7.6 8.2 8.2 8.3 7.5 7.3 7.1 7.0 6.6 6.3 6.3 6.3 6.1 5.9 5.9 5.7 5.7 5.9 5.6 5.7 5.8 6.0 6.2 5.9 5.8 5.7
8.5 8.2 7.9 8.4 9.2 9.4 9.4 9.2 9.2 9.3 9.5 9.2 8.1 8.9 9.0 9.0 8.9 8.5 8.1 8.0 8.1 8.0 7.6 7.1 7.0 7.1 7.0 6.7 6.4 6.3 6.3 6.4 5.9 5.8 5.6 5.7 5.9 5.7 5.8 5.9 6.0 5.9 5.8 5.7
8.5 8.6 8.6 7.9 8.9 9.3 9.5 9.6 9.4 9.4 9.3 9.0 9.0 9.3 9.3 8.9 8.6 8.4 8.2 8.2 7.9 8.0 7.5 7.0 6.7 6.7 6.8 6.8 6.6 6.5 6.5 6.5 6.3 6.1 5.8 5.6 5.9 5.8 5.8 5.8 5.7 5.7 5.6 5.7
8.6 8.5 8.8 8.9 8.9 8.9 9.2 9.4 9.4 9.1 8.9 8.9 8.9 9.0 9.2 8.9 8.8 8.5 8.6 8.1 7.8 7.8 7.5 6.6 6.4 6.7 6.7 6.6 6.6 6.6 6.5 6.4 6.3 6.3 6.1 6.0 5.8 5.6 5.9 5.6 5.1 6.0 5.8 5.6
8.4 8.6 8.7 8.7 9.1 9.2 9.2 9.2 9.1 9.0 8.8 8.8 8.8 8.9 9.0 8.8 8.5 8.5 8.2 8.5 8.1 7.9 7.3 6.1 6.6 6.8 6.8 6.7 6.7 6.6 6.5 6.4 6.4 6.4 6.4 6.0 5.9 5.9 6.0 6.2 6.0 5.9 5.7 5.8
7.9 8.2 8.5 8.5 8.8 8.9 8.5 8.7 8.5 8.8 8.8 9.0 8.8 8.7 8.6 8.8 8.4 8.8 8.4 8.2 8.2 8.0 7.3 6.8 7.1 6.9 6.5 6.2 6.2 6.2 6.2 6.3 6.6 6.7 6.7 6.5 6.0 6.1 6.1 6.0 5.9 5.8 5.7 5.8
7.3 7.9 8.1 8.4 8.3 7.4 8.6 8.7 8.7 8.8 8.7 8.7 8.9 8.8 8.5 8.3 8.7 9.1 8.6 8.3 8.1 7.8 7.5 7.5 7.2 6.7 6.5 6.1 6.0 6.1 6.2 6.4 6.5 6.6 6.4 6.2 6.1 5.8 5.8 5.9 6.0 5.9 5.7 5.8
7.3 7.4 7.9 8.1 8.2 8.3 8.7 8.8 8.7 8.6 8.6 8.7 8.7 8.8 8.3 8.2 8.2 8.7 8.4 8.3 8.0 8.2 8.1 7.7 7.2 6.6 6.4 6.1 6.1 6.1 6.1 6.3 6.4 6.5 6.3 6.2 6.2 6.0 5.8 5.7 5.7 5.6 5.5 5.6
7.8 7.7 7.7 7.8 7.9 7.0 8.6 8.8 8.8 8.7 8.6 8.6 8.6 8.4 8.4 8.4 8.2 8.7 8.5 8.3 7.9 8.3 7.8 7.4 7.0 6.7 6.4 6.3 6.1 6.1 6.2 6.2 6.2 6.2 6.1 6.0 6.0 6.0 6.0 6.0 5.9 5.7 5.3 5.3
8.0 7.9 7.9 8.0 7.9 7.9 8.3 8.7 8.6 8.4 8.5 8.5 8.2 8.2 8.2 8.1 8.4 9.3 8.8 8.4 8.1 8.0 7.5 7.2 6.9 6.7 6.5 6.4 6.2 6.1 6.3 6.2 6.0 5.9 6.0 5.8 5.9 5.9 6.0 6.0 6.0 5.7 5.5 5.3
7.5 7.8 7.6 7.8 7.8 7.8 8.2 8.6 8.2 8.5 8.5 8.5 8.4 8.3 8.3 8.4 8.7 9.0 8.5 8.6 8.1 7.8 7.5 7.0 6.8 6.5 6.5 6.3 6.2 6.1 6.2 6.3 6.2 5.9 5.9 5.9 5.9 6.0 5.9 5.8 5.7 5.3 5.0 5.0
7.3 7.2 7.5 7.6 7.5 7.1 8.3 8.6 8.7 8.4 8.3 8.4 8.5 8.3 8.3 8.2 8.4 8.9 8.8 8.1 8.1 7.9 7.6 7.1 6.7 6.5 6.4 6.3 6.1 6.2 6.3 6.3 6.2 6.2 6.0 5.9 5.9 5.9 5.9 5.6 5.3 5.2 5.1 4.9
7.0 6.9 6.9 7.2 7.3 7.1 6.8 7.0 7.7 8.2 8.3 8.1 8.2 8.6 8.6 8.5 8.2 8.5 8.3 8.0 7.8 7.7 7.6 7.1 6.7 6.5 6.5 6.4 6.2 6.3 6.2 6.0 5.9 6.0 6.1 5.9 5.7 5.7 5.9 5.9 5.7 5.5 5.3 5.3
6.8 6.9 6.7 6.9 7.1 6.9 7.0 6.9 6.9 7.1 7.5 7.9 8.4 8.3 8.6 8.6 8.5 8.3 8.2 7.8 7.9 7.4 7.1 7.0 6.7 6.5 6.5 6.3 6.2 6.2 6.1 6.0 6.0 6.1 6.0 5.9 5.7 5.6 5.7 5.8 5.8 5.7 5.7 5.6
6.8 6.9 6.9 6.7 7.0 6.9 7.2 7.1 7.2 6.8 7.1 7.5 7.9 7.9 8.2 8.3 8.3 7.9 7.6 8.3 8.0 7.7 7.1 6.8 6.7 6.6 6.5 6.3 6.2 6.1 6.0 5.9 6.1 6.1 5.9 5.7 5.6 5.6 5.7 5.8 6.0 6.2 6.2 6.2
Wind_Speed
2 3 6 10 8 3 3 3 4 1 5 3 6 4 8 8 7 9 9 5 5 11 15 14 16 14 11 8 8 9 9 7 6 2 3 3 3 2 3 6 9 10 12 6
4 7 11 4 5 5 2 5 3 2 6 4 7 8 7 7 7 12 14 9 7 4 6 11 15 13 14 14 12 9 9 8 7 4 3 3 3 3 2 4 7 10 7 8
7 8 6 6 8 4 4 8 7 6 6 2 1 5 5 5 11 12 10 9 12 10 9 14 15 16 14 14 15 13 12 11 9 8 3 2 2 3 2 1 3 7 11 11
6 5 7 6 7 7 7 13 13 10 7 3 4 4 5 6 7 12 16 11 15 9 8 15 18 18 17 17 14 14 12 11 10 8 6 6 5 4 4 4 4 5 10 9
8 3 5 6 11 8 12 13 15 12 7 4 2 2 5 5 8 12 13 17 16 15 10 13 16 19 18 16 15 14 12 11 10 10 8 6 4 3 3 3 4 5 4 6
7 3 5 8 6 9 2 6 7 5 3 2 5 7 5 6 9 7 14 14 17 14 13 13 14 14 14 11 12 11 11 12 11 12 9 9 8 6 4 4 5 4 4 4
3 7 4 5 4 1 6 6 2 1 1 6 4 5 10 4 7 9 20 20 15 15 11 10 13 13 13 11 12 11 14 13 13 13 12 11 9 8 8 7 6 6 3 3
4 5 6 4 8 8 5 8 6 6 3 4 6 5 7 4 6 11 10 16 13 10 13 14 16 16 16 15 16 16 14 13 13 12 11 9 8 6 5 6 5 6 7 8
5 6 4 6 7 11 5 2 5 8 4 3 3 7 10 4 2 6 7 7 13 14 12 15 15 15 15 15 18 17 13 11 11 13 8 8 8 7 7 8 5 5 6 6
5 3 5 2 4 4 9 9 3 3 4 4 5 5 7 6 3 6 7 7 8 10 11 12 12 15 13 12 14 10 8 13 11 10 9 9 10 10 8 6 8 7 7 6
5 4 9 3 3 8 2 2 5 6 5 6 3 6 8 11 7 9 8 8 9 10 10 11 11 11 12 8 10 10 9 9 10 8 10 11 10 10 8 9 8 8 6 6
9 6 6 11 4 1 6 7 7 5 5 2 5 6 4 6 8 6 7 8 6 7 8 8 8 9 9 10 11 12 10 11 12 12 11 12 10 10 10 11 9 8 8 6
6 3 2 9 6 3 4 5 6 5 3 5 6 6 4 2 5 5 7 7 8 6 5 6 7 8 7 8 9 12 12 13 10 9 9 11 10 11 13 12 11 8 8 7
7 5 8 12 9 5 5 6 3 7 4 6 6 4 5 6 7 6 8 5 7 8 7 5 6 5 5 6 7 7 8 8 7 8 9 9 11 10 8 4 5 6 8 8
3 5 6 5 7 5 6 7 7 5 6 6 5 7 8 10 10 8 6 6 10 10 7 5 5 5 5 5 4 4 6 7 8 10 11 15 12 9 9 8 4 0 5 6
6 2 3 4 5 7 5 8 9 4 4 1 2 5 6 6 5 7 9 10 12 13 10 7 6 6 4 3 1 2 2 2 5 9 12 12 11 11 11 11 13 8 6 4
3 1 2 4 4 5 3 8 9 6 5 7 6 9 4 5 8 13 12 13 14 14 12 11 9 8 7 5 2 3 2 0 3 4 7 6 6 10 9 12 11 11 10 8
2 1 2 3 0 5 7 4 4 7 8 8 4 5 7 9 16 8 11 14 14 14 11 8 7 6 6 5 4 4 3 4 3 1 1 1 3 5 4 6 8 8 9 12
7 4 2 3 3 5 2 3 6 7 9 8 8 8 8 4 5 2 8 10 17 16 12 9 7 6 7 6 5 6 5 4 4 4 4 3 2 4 5 5 4 2 3 3
4 3 4 2 4 7 7 5 6 2 3 4 7 7 7 11 8 10 13 11 8 11 12 13 10 8 7 6 7 7 6 5 5 3 3 4 4 3 4 4 5 4 3 3
1 1 6 4 4 6 3 8 6 7 5 13 6 3 9 8 10 14 13 9 10 14 14 12 11 11 8 7 7 7 6 5 4 4 4 4 3 2 0 3 2 3 3 3
4 4 3 2 2 5 5 5 3 3 2 5 7 4 3 11 7 11 16 13 15 15 13 12 11 8 7 6 6 6 5 5 5 4 4 4 4 2 2 2 2 3 4 4
2 4 3 7 4 4 3 2 3 2 2 2 5 13 12 7 8 13 13 16 15 18 15 12 10 8 6 6 6 6 5 6 6 5 5 5 4 4 3 3 3 2 3 4
3 3 1 3 3 6 5 3 3 4 4 4 5 10 9 8 7 7 13 14 14 13 13 10 11 8 6 5 6 5 7 7 6 5 5 4 4 4 4 3 3 3 2 2
5 1 1 4 5 6 3 4 5 4 6 9 10 8 11 2 8 13 13 14 15 14 11 11 10 8 7 6 7 7 6 7 6 4 4 5 3 4 4 4 3 3 2 2
4 6 4 5 5 4 6 5 3 5 5 7 7 11 10 6 3 6 12 14 15 14 12 10 9 9 7 7 7 6 6 6 7 5 4 4 4 3 3 2 3 8 7 5
Wind_Direction
32 96 206 213 209 180 201 195 203 261 180 171 199 201 222 192 202 184 207 210 242 189 188 187 192 190 180 187 171 182 181 179 153 142 151 151 214 230 244 226 231 214 216 228
30 225 232 225 210 204 254 184 159 356 169 228 205 210 213 185 216 203 203 200 196 186 189 191 192 185 184 195 195 180 191 174 183 185 173 156 160 199 204 209 228 221 226 224
167 231 154 189 261 231 195 178 187 180 203 260 93 308 202 198 208 217 223 208 201 189 198 190 191 191 181 195 200 191 184 180 190 201 123 92 121 70 83 174 215 229 220 221
220 254 206 203 244 167 270 195 194 162 141 224 156 257 264 197 222 210 210 204 215 193 196 206 186 191 190 198 202 197 179 179 191 184 182 180 172 169 199 188 194 212 220 201
241 210 177 198 233 147 235 154 182 173 151 106 246 348 258 150 234 223 220 207 209 217 192 200 196 190 193 194 194 195 181 180 188 192 194 185 179 190 182 177 196 205 248 234
232 265 160 217 247 181 255 89 54 63 80 350 213 181 272 190 206 207 219 216 213 206 200 196 188 197 200 189 184 183 178 190 187 189 192 191 184 198 166 176 199 215 219 227
287 252 214 184 266 298 76 73 1 1 110 216 123 154 242 234 205 197 202 204 206 207 192 176 180 190 193 183 177 177 178 192 193 190 192 196 194 187 197 191 187 187 196 221
187 316 178 178 185 191 182 150 152 205 187 242 118 245 252 230 220 200 196 199 189 184 191 188 185 189 193 186 183 191 190 190 194 195 197 197 194 183 196 203 196 199 202 215
159 272 256 184 196 153 190 152 186 101 5 67 253 293 310 237 109 128 184 169 177 179 190 197 190 195 190 185 190 193 189 195 194 200 198 196 205 193 193 202 196 214 209 212
214 292 213 243 142 78 157 154 76 13 139 225 285 285 244 275 201 160 167 173 163 184 182 195 195 198 190 188 192 188 181 195 196 196 204 211 211 212 204 188 203 203 215 207
147 142 259 56 199 183 116 171 52 120 143 177 216 261 228 232 196 193 176 184 178 178 191 196 196 202 197 173 184 189 191 187 198 196 213 215 208 212 204 206 207 212 208 204
209 165 224 221 240 296 179 182 140 132 234 173 159 273 302 252 187 191 201 160 193 171 194 210 202 185 180 177 185 198 202 204 208 208 207 215 209 207 204 212 207 202 210 212
179 215 253 323 351 26 196 188 137 116 79 184 143 258 340 35 181 188 197 195 171 162 148 191 191 196 196 195 194 199 207 210 207 194 201 214 212 210 216 215 210 196 200 214
135 142 180 221 213 165 169 172 142 130 124 173 213 252 281 240 195 190 201 192 145 123 118 120 117 132 155 158 185 201 206 198 181 182 205 222 219 219 224 215 223 199 203 202
107 212 179 237 207 200 177 166 167 161 174 149 218 206 231 223 202 229 168 157 144 129 134 121 124 119 120 135 165 186 205 199 192 191 207 225 225 201 183 132 70 246 246 224
352 255 173 246 228 201 191 173 182 166 133 179 151 252 220 179 139 158 194 167 153 144 152 170 165 140 130 124 20 349 346 245 186 200 211 217 213 206 195 173 172 166 193 160
354 51 71 253 206 110 330 195 186 179 180 152 166 223 182 169 194 189 183 173 158 156 162 176 162 162 151 144 126 44 32 14 194 215 232 220 205 212 177 174 185 194 201 174
194 80 120 218 158 197 231 276 216 189 172 206 154 172 204 210 204 166 187 163 155 158 176 159 150 158 124 128 114 110 78 50 55 58 324 56 168 169 192 184 198 195 202 209
182 139 163 188 193 278 276 212 161 170 235 194 181 188 210 202 82 154 184 178 168 175 167 162 165 140 129 138 134 107 84 78 54 35 27 36 101 137 160 192 194 131 161 197
98 101 143 160 176 199 233 317 347 86 256 281 190 166 161 145 170 210 190 167 168 154 157 149 147 124 132 150 138 122 113 100 84 59 28 15 47 89 116 131 143 151 192 200
120 17 174 181 209 285 277 287 281 142 227 313 314 319 157 173 205 207 150 146 158 155 146 142 144 148 155 153 139 126 131 135 143 112 95 71 25 346 294 160 154 171 145 97
191 162 199 107 143 239 345 310 182 180 8 302 330 329 313 281 170 155 161 146 147 140 140 148 144 153 155 159 143 149 163 165 149 146 125 102 85 75 82 189 187 199 128 121
236 193 206 189 218 238 309 6 297 300 190 326 307 317 291 242 212 162 161 149 156 150 152 150 149 144 162 166 168 160 156 136 131 119 106 92 74 56 64 94 109 122 146 148
314 182 218 17 282 261 298 267 231 271 292 316 358 327 309 236 201 147 144 140 144 146 151 144 137 141 159 177 161 148 143 135 130 124 117 98 92 78 46 42 46 88 109 135
219 170 240 284 272 278 271 234 295 305 307 338 356 355 329 258 181 156 148 145 147 146 140 149 147 147 151 144 133 136 149 138 130 123 141 120 112 103 90 61 27 25 47 356
180 202 187 230 239 180 253 279 264 301 315 319 327 335 338 317 214 179 148 144 142 141 141 141 146 144 149 145 143 154 163 149 137 149 166 138 121 113 106 109 88 47 22 23